Location: York
(31.8935°S, 116.7682°E)
Time: 17:15:55
(UTC+08:00)

deb Explorer IX - Pass Details

Date: 04 October 2022
Orbit: 533 x 1057 km, 38.8° (Epoch: 30 November)

Event Time Altitude Azimuth Distance (km) Brightness Sun altitude
Rises 16:44:39 0° 310° (NW) 3,780 ? 18.6°
Reaches altitude 10° 16:47:30 10° 313° (NW) 2,788 ? 18.1°
Maximum altitude 16:54:08 58° 30° (NNE) 1,083 ? 16.7°
Drops below altitude 10° 17:00:00 10° 108° (ESE) 2,480 ? 15.4°
Sets 17:02:24 0° 111° (ESE) 3,335 ? 14.9°
